STARLINK-35507

Last updated on Sun Dec 07 2025 00:02:05 GMT+0000 (Coordinated Universal Time)

1 66327U 25253J 25340.58335648 -.00097387 00000+0 -16734-2 0 9995 2 66327 43.0006 20.7332 0001329 286.7721 204.1985 15.50604811 6033
UTC large
Height (km)
Speed (km/s)
/
Latitude / Longitude
Inclination (degrees)
Orbital Period (minutes)
Azimuth
Elevation
Range (km)
Doppler Factor

Next 0 passes for location: London (51.5072 / 0.1276)

Sorry there are no passes over London.